Location: Franzen
(48.6167°N, 15.3833°E)
Time: 18:26:20
(UTC+00:00)

Altair - Pass Details

Date: 03 August 2021
Orbit: 1501 x 1682 km, 47.2° (Epoch: 20 September)

Event Time Altitude Azimuth Distance (km) Brightness Sun altitude
Rises 01:06:15 0° 242° (WSW) 4,748 - -18.6°
Reaches altitude 10° 01:09:22 10° 240° (WSW) 3,741 - -18.3°
Exits shadow 01:11:56 21° 237° (WSW) 2,945 8.4 -18.1°
Maximum altitude 01:18:41 69° 160° (SSE) 1,615 7.4 -17.5°
Drops below altitude 10° 01:27:46 10° 80° (E) 3,658 10.1 -16.6°
Sets 01:30:47 0° 78° (ENE) 4,638 10.8 -16.3°
